User: anonymous   Login
Location: Unspecified
(0.0000°N, 0.0000°E)
Time: 02:14:13
(UTC+01:00)
Language:

YAOGAN 1 - Orbit

View from above orbital plane
View from above orbital plane
View from above satellite
View from above satellite

Ground track
Ground track

The orbit data is extracted from the following two-line orbital elements,

1 29092U 06015A   14332.50055139  .00000933  00000-0  12416-3 0  2271
2 29092 097.9882 327.5525 0001455 100.5985 066.1049 14.82055986464322
Epoch (UTC): 28 November 2014 12:00:47
Eccentricity: 0.0001455
inclination: 97.9882°
perigee height: 622 km
apogee height: 624 km
right ascension of ascending node: 327.5525°
argument of perigee: 100.5985°
revolutions per day: 14.82055986
mean anomaly at epoch: 66.1049°
orbit number at epoch: 46432

The dashed part of the orbit path shows where the satellite is in the earth's shadow,  

DLR